sat.trackr.live / text

‹ back to catalog

GEESAT-3 03

NORAD 61013 · 2024-159C

PAYLOAD ACTIVE UNKNOWN

§ Identity

Operator
Country
PRC
Launch date
2024-09-05
Launch site
TAISC
Launch vehicle
Mass (kg)
RCS (m²)

External: N2YO · Heavens-Above · Gunter

§ Orbital elements

Epoch: 2026-05-25T04:41:59.851104Z

Period
97.03 min
Inclination
49.9923°
Eccentricity
0.0005343
Mean motion
14.84151665 rev/d
Perigee alt
612.5 km
Apogee alt
620.0 km
Semi-major
6,994.4 km
B*
1.9350e-4
RAAN
188.7034°
Arg perigee
35.2530°
Mean anomaly
324.8761°
Rev number
9,342

§ Raw data

GEESAT-3 031 61013U 24159C   26145.19583161  .00001407  00000+0  19350-3 0  99962 61013  49.9923 188.7034 0005343  35.2530 324.8761 14.84151665 93423

JSON: /api/v1/satellites/61013 · /tle

For live sub-satellite position, see the globe view (requires WebGL).

§ Visibility from observer

Set your observer location to see the next 7 days of passes ≥ 10°. The values pass through the URL so the page stays shareable.

No JS? Fill the form by hand. The geolocation button needs JavaScript.